Total_Precipitation_Accumulation
0.02 0.06 0.14 0.13 0.12 0.13 0.14 0.12 0.11 0.10 0.11 0.13 0.17 0.19 0.19 0.19 0.17 0.15 0.14 0.17 0.23 0.31 0.37 0.39 0.36 0.34 0.31 0.26 0.15 0.07 0.04 0.03 0.03 0.03 0.03 0.04 0.05 0.06 0.05 0.04 0.05 0.07 0.10
0.01 0.05 0.11 0.12 0.13 0.15 0.16 0.13 0.09 0.07 0.08 0.13 0.17 0.18 0.19 0.19 0.17 0.17 0.20 0.23 0.27 0.30 0.34 0.33 0.32 0.26 0.20 0.13 0.07 0.03 0.01 0.01 0.01 0.00 0.01 0.01 0.03 0.04 0.04 0.04 0.05 0.08 0.10
0.01 0.04 0.09 0.11 0.13 0.15 0.14 0.10 0.07 0.05 0.07 0.13 0.16 0.16 0.18 0.19 0.19 0.19 0.21 0.22 0.25 0.26 0.23 0.20 0.17 0.11 0.07 0.05 0.03 0.02 0.01 0.01 0.01 0.01 0.01 0.03 0.04 0.05 0.06 0.05 0.08 0.10 0.12
0.04 0.05 0.08 0.11 0.14 0.14 0.13 0.08 0.05 0.05 0.08 0.12 0.15 0.17 0.19 0.20 0.19 0.20 0.17 0.17 0.18 0.15 0.12 0.09 0.05 0.03 0.02 0.02 0.01 0.01 0.01 0.00 0.00 0.01 0.02 0.03 0.04 0.08 0.10 0.10 0.11 0.12 0.12
0.07 0.08 0.11 0.13 0.16 0.16 0.12 0.08 0.06 0.07 0.09 0.13 0.16 0.17 0.21 0.22 0.21 0.20 0.15 0.10 0.10 0.07 0.05 0.03 0.02 0.02 0.01 0.01 0.01 0.01 0.00 0.00 0.00 0.01 0.02 0.04 0.05 0.11 0.12 0.11 0.12 0.12 0.12
0.10 0.11 0.15 0.17 0.19 0.17 0.13 0.09 0.07 0.07 0.10 0.14 0.16 0.16 0.21 0.25 0.26 0.21 0.10 0.06 0.06 0.03 0.02 0.01 0.01 0.01 0.01 0.01 0.01 0.00 0.00 0.00 0.00 0.01 0.02 0.03 0.05 0.13 0.15 0.14 0.14 0.15 0.17
0.13 0.16 0.20 0.21 0.20 0.18 0.15 0.11 0.09 0.09 0.11 0.14 0.16 0.17 0.18 0.22 0.26 0.22 0.08 0.04 0.03 0.02 0.01 0.01 0.01 0.01 0.01 0.01 0.00 0.00 0.00 0.00 0.00 0.01 0.02 0.03 0.08 0.17 0.17 0.15 0.15 0.15 0.14
0.18 0.21 0.28 0.31 0.26 0.21 0.20 0.17 0.13 0.12 0.12 0.14 0.17 0.17 0.17 0.19 0.21 0.20 0.09 0.03 0.02 0.02 0.01 0.01 0.01 0.01 0.01 0.01 0.00 0.00 0.00 0.00 0.00 0.01 0.02 0.03 0.07 0.11 0.11 0.09 0.09 0.10 0.11
0.30 0.29 0.30 0.34 0.35 0.29 0.22 0.21 0.20 0.16 0.14 0.15 0.17 0.20 0.16 0.13 0.15 0.15 0.09 0.03 0.02 0.02 0.02 0.02 0.02 0.02 0.01 0.01 0.00 0.00 0.00 0.00 0.00 0.01 0.01 0.02 0.04 0.06 0.06 0.07 0.10 0.11 0.12
0.50 0.46 0.37 0.34 0.33 0.32 0.29 0.21 0.21 0.19 0.16 0.16 0.17 0.16 0.13 0.11 0.11 0.12 0.07 0.04 0.02 0.02 0.02 0.02 0.02 0.02 0.02 0.01 0.00 0.00 0.00 0.00 0.00 0.00 0.01 0.01 0.03 0.04 0.05 0.07 0.10 0.11 0.13
0.71 0.67 0.53 0.40 0.34 0.29 0.29 0.25 0.22 0.21 0.18 0.17 0.15 0.13 0.11 0.11 0.10 0.08 0.04 0.03 0.03 0.03 0.02 0.02 0.02 0.01 0.01 0.00 0.00 0.00 0.00 0.00 0.00 0.00 0.01 0.01 0.02 0.03 0.04 0.06 0.08 0.08 0.10
0.73 0.68 0.62 0.53 0.44 0.36 0.29 0.25 0.25 0.20 0.18 0.16 0.12 0.10 0.10 0.09 0.08 0.06 0.03 0.03 0.03 0.03 0.02 0.02 0.01 0.01 0.00 0.00 0.00 0.00 0.00 0.00 0.00 0.00 0.00 0.01 0.01 0.03 0.04 0.06 0.06 0.07 0.07
0.89 0.74 0.63 0.57 0.54 0.45 0.34 0.26 0.24 0.19 0.17 0.16 0.14 0.12 0.10 0.09 0.08 0.06 0.03 0.03 0.03 0.03 0.02 0.02 0.01 0.00 0.00 0.00 0.00 0.00 0.00 0.00 0.00 0.00 0.00 0.01 0.01 0.03 0.05 0.06 0.06 0.06 0.07
1.13 0.92 0.77 0.67 0.60 0.51 0.41 0.31 0.24 0.19 0.16 0.14 0.14 0.15 0.12 0.08 0.07 0.05 0.03 0.02 0.02 0.02 0.02 0.01 0.01 0.00 0.00 0.00 0.00 0.00 0.00 0.00 0.00 0.00 0.01 0.01 0.01 0.02 0.04 0.06 0.06 0.07 0.08
1.25 1.13 0.95 0.85 0.73 0.63 0.52 0.39 0.29 0.24 0.18 0.15 0.14 0.14 0.12 0.09 0.07 0.06 0.04 0.03 0.02 0.01 0.01 0.01 0.00 0.00 0.01 0.00 0.00 0.00 0.00 0.00 0.00 0.01 0.01 0.00 0.00 0.01 0.03 0.06 0.07 0.10 0.14
1.21 1.21 1.13 1.00 0.86 0.73 0.62 0.46 0.35 0.29 0.23 0.18 0.15 0.14 0.13 0.11 0.09 0.07 0.05 0.04 0.03 0.03 0.02 0.03 0.02 0.01 0.01 0.01 0.00 0.00 0.01 0.01 0.01 0.01 0.01 0.00 0.00 0.01 0.02 0.05 0.08 0.14 0.20
1.30 1.32 1.24 1.17 1.09 0.89 0.74 0.65 0.49 0.37 0.28 0.22 0.19 0.17 0.14 0.12 0.11 0.09 0.07 0.05 0.04 0.04 0.04 0.04 0.03 0.02 0.02 0.02 0.02 0.02 0.02 0.03 0.03 0.02 0.02 0.02 0.01 0.01 0.02 0.04 0.08 0.13 0.19
1.41 1.41 1.38 1.23 1.24 1.18 1.00 0.80 0.62 0.47 0.38 0.30 0.26 0.23 0.20 0.16 0.15 0.15 0.12 0.10 0.08 0.06 0.07 0.07 0.06 0.05 0.04 0.04 0.04 0.04 0.05 0.05 0.04 0.04 0.04 0.03 0.03 0.03 0.03 0.03 0.05 0.09 0.13
1.44 1.41 1.47 1.37 1.29 1.37 1.32 1.10 0.90 0.75 0.58 0.49 0.41 0.31 0.29 0.27 0.26 0.24 0.20 0.16 0.15 0.14 0.12 0.11 0.10 0.09 0.08 0.07 0.06 0.07 0.08 0.07 0.06 0.05 0.04 0.03 0.02 0.02 0.02 0.02 0.03 0.04 0.07
1.50 1.51 1.53 1.58 1.50 1.56 1.65 1.53 1.27 1.05 0.89 0.78 0.65 0.54 0.46 0.39 0.38 0.32 0.27 0.24 0.23 0.22 0.20 0.18 0.16 0.14 0.12 0.13 0.13 0.09 0.09 0.07 0.06 0.05 0.04 0.04 0.03 0.03 0.03 0.03 0.03 0.03 0.04
1.35 1.49 1.44 1.49 1.60 1.64 1.65 1.54 1.35 1.15 1.03 0.98 0.89 0.81 0.68 0.56 0.48 0.41 0.37 0.36 0.33 0.29 0.26 0.23 0.22 0.19 0.18 0.19 0.19 0.14 0.10 0.08 0.06 0.06 0.06 0.06 0.05 0.05 0.05 0.05 0.05 0.05 0.05
1.12 1.19 1.29 1.30 1.40 1.50 1.51 1.48 1.49 1.51 1.35 1.20 1.07 0.93 0.81 0.73 0.66 0.57 0.50 0.46 0.43 0.40 0.36 0.33 0.34 0.32 0.30 0.31 0.33 0.33 0.22 0.13 0.08 0.08 0.09 0.09 0.09 0.08 0.08 0.08 0.08 0.08 0.08
0.90 0.98 1.06 1.12 1.18 1.23 1.39 1.52 1.56 1.58 1.51 1.26 1.02 0.88 0.88 0.91 0.87 0.75 0.66 0.64 0.62 0.61 0.56 0.53 0.53 0.50 0.47 0.46 0.48 0.54 0.43 0.26 0.16 0.11 0.10 0.11 0.11 0.10 0.09 0.09 0.10 0.11 0.11
0.69 0.82 0.91 0.99 1.06 1.08 1.22 1.28 1.25 1.13 1.10 1.04 0.99 0.98 1.01 1.02 1.00 0.93 0.87 0.80 0.75 0.74 0.71 0.75 0.81 0.78 0.72 0.60 0.55 0.53 0.53 0.46 0.41 0.28 0.16 0.14 0.13 0.12 0.13 0.12 0.13 0.14 0.14
0.51 0.58 0.72 0.87 0.91 0.92 0.99 1.07 1.15 1.10 1.05 1.09 1.08 1.00 0.94 0.91 0.95 0.99 0.97 0.90 0.80 0.75 0.74 0.77 0.79 0.83 0.80 0.74 0.69 0.68 0.67 0.59 0.55 0.52 0.35 0.22 0.20 0.19 0.19 0.19 0.20 0.22 0.24
0.41 0.40 0.52 0.64 0.80 0.87 0.90 0.96 1.03 1.01 0.96 0.96 0.99 0.98 0.96 0.91 0.85 0.86 0.91 0.88 0.86 0.84 0.83 0.86 0.89 0.90 0.91 0.90 0.85 0.78 0.75 0.69 0.61 0.64 0.59 0.43 0.36 0.31 0.31 0.33 0.35 0.36 0.36